| time (UTC) | temp F | wind direction | speed MPH | gust MPH | rain 1hr in | rain 24hr in | rain mn in | humidity % | barometer mb |
| 20260503034507 | 53 | 155 | 0.0 | 1.0 | 0.00 | 0.02 | 0.00 | 91 | 1011.7 |
| 20260503033032 | 53 | 156 | 0.0 | 1.0 | 0.00 | 0.02 | 0.00 | 91 | 1011.8 |
| 20260503031557 | 53 | 156 | 0.0 | 1.0 | 0.00 | 0.02 | 0.00 | 91 | 1011.7 |
| 20260503030039 | 53 | 155 | 2.0 | 3.0 | 0.00 | 0.02 | 0.00 | 90 | 1011.7 |
| 20260503024557 | 53 | 158 | 2.0 | 5.0 | 0.00 | 0.02 | 0.00 | 91 | 1011.8 |
| 20260503023027 | 53 | 134 | 0.0 | 2.0 | 0.00 | 0.02 | 0.00 | 90 | 1011.8 |
| 20260503021557 | 54 | 135 | 1.0 | 2.0 | 0.00 | 0.02 | 0.00 | 90 | 1012.0 |
| 20260503020023 | 54 | 135 | 0.0 | 0.0 | 0.00 | 0.02 | 0.00 | 90 | 1012.1 |
| 20260503014604 | 54 | 135 | 0.0 | 0.0 | 0.00 | 0.02 | 0.00 | 90 | 1012.2 |
| 20260503013013 | 54 | 135 | 0.0 | 0.0 | 0.00 | 0.02 | 0.00 | 90 | 1012.3 |
| 20260503011539 | 54 | 135 | 0.0 | 0.0 | 0.00 | 0.02 | 0.00 | 90 | 1012.4 |
| 20260503010023 | 54 | 135 | 1.0 | 3.0 | 0.00 | 0.02 | 0.00 | 90 | 1012.5 |
| 20260503004550 | 54 | 135 | 0.0 | 2.0 | 0.00 | 0.02 | 0.00 | 89 | 1012.7 |
| 20260503003038 | 54 | 135 | 0.0 | 0.0 | 0.00 | 0.02 | 0.00 | 89 | 1012.8 |
| 20260503001556 | 55 | 135 | 0.0 | 0.0 | 0.00 | 0.02 | 0.00 | 89 | 1012.8 |
| 20260503000104 | 55 | 135 | 0.0 | 2.0 | 0.00 | 0.02 | 0.00 | 89 | 1013.0 |
| 20260502234531 | 56 | 135 | 0.0 | 0.0 | 0.00 | 0.02 | 0.00 | 89 | 1013.0 |
| 20260502233052 | 56 | 135 | 0.0 | 0.0 | 0.00 | 0.02 | 0.00 | 89 | 1013.0 |
| 20260502231523 | 56 | 135 | 0.0 | 0.0 | 0.00 | 0.02 | 0.00 | 89 | 1013.1 |
| 20260502230045 | 56 | 136 | 0.0 | 1.0 | 0.00 | 0.02 | 0.00 | 89 | 1013.0 |
| 20260502224521 | 56 | 135 | 0.0 | 1.0 | 0.00 | 0.02 | 0.00 | 88 | 1013.1 |
| 20260502223003 | 56 | 135 | 1.0 | 2.0 | 0.00 | 0.02 | 0.00 | 88 | 1013.2 |
| 20260502221550 | 56 | 135 | 0.0 | 2.0 | 0.00 | 0.02 | 0.00 | 88 | 1013.2 |
| 20260502220035 | 56 | 134 | 0.0 | 2.0 | 0.00 | 0.02 | 0.00 | 88 | 1013.3 |
| 20260502214507 | 56 | 135 | 2.0 | 4.0 | 0.00 | 0.02 | 0.02 | 87 | 1013.4 |
| 20260502213040 | 57 | 134 | 2.0 | 4.0 | 0.00 | 0.02 | 0.02 | 87 | 1013.4 |
| 20260502211509 | 57 | 144 | 1.0 | 4.0 | 0.00 | 0.02 | 0.02 | 87 | 1013.4 |
| 20260502210031 | 57 | 145 | 2.0 | 4.0 | 0.00 | 0.02 | 0.02 | 86 | 1013.4 |
| 20260502204551 | 58 | 126 | 2.0 | 4.0 | 0.00 | 0.02 | 0.02 | 85 | 1013.5 |
| 20260502203009 | 58 | 103 | 2.0 | 3.0 | 0.00 | 0.02 | 0.02 | 83 | 1013.6 |
| 20260502201542 | 59 | 48 | 0.0 | 1.0 | 0.00 | 0.02 | 0.02 | 81 | 1013.7 |
| 20260502200007 | 60 | 47 | 0.0 | 2.0 | 0.00 | 0.02 | 0.02 | 80 | 1013.6 |
| 20260502194531 | 61 | 47 | 1.0 | 3.0 | 0.00 | 0.02 | 0.02 | 79 | 1013.5 |
| 20260502193058 | 62 | 67 | 2.0 | 3.0 | 0.00 | 0.02 | 0.02 | 78 | 1013.4 |
| 20260502191510 | 63 | 127 | 0.0 | 3.0 | 0.00 | 0.02 | 0.02 | 76 | 1013.4 |
| 20260502190045 | 63 | 128 | 2.0 | 7.0 | 0.00 | 0.02 | 0.02 | 76 | 1013.5 |
| 20260502184505 | 64 | 124 | 4.0 | 7.0 | 0.00 | 0.02 | 0.02 | 75 | 1013.6 |
| 20260502183029 | 64 | 136 | 3.0 | 8.0 | 0.00 | 0.02 | 0.02 | 74 | 1013.5 |
| 20260502181600 | 64 | 107 | 5.0 | 11.0 | 0.02 | 0.02 | 0.02 | 73 | 1013.6 |
| 20260502163029 | 75 | 163 | 3.0 | 9.0 | 0.00 | 0.01 | 0.01 | 54 | 1013.7 |
| 20260502161543 | 76 | 213 | 2.0 | 7.0 | 0.00 | 0.01 | 0.01 | 53 | 1013.8 |
| 20260502151608 | 78 | 205 | 3.0 | 9.0 | 0.00 | 0.01 | 0.01 | 51 | 1014.4 |
| 20260502123026 | 75 | 183 | 2.0 | 17.0 | 0.00 | 0.01 | 0.01 | 60 | 1017.0 |
| 20260502121550 | 73 | 209 | 3.0 | 10.0 | 0.00 | 0.01 | 0.01 | 59 | 1017.3 |
| 20260502114513 | 74 | 147 | 4.0 | 8.0 | 0.00 | 0.01 | 0.01 | 59 | 1017.6 |
| 20260502113043 | 73 | 192 | 2.0 | 7.0 | 0.00 | 0.01 | 0.01 | 60 | 1017.8 |
| 20260502111556 | 73 | 249 | 6.0 | 10.0 | 0.00 | 0.01 | 0.01 | 59 | 1018.1 |
| 20260502110023 | 73 | 217 | 3.0 | 10.0 | 0.00 | 0.01 | 0.01 | 59 | 1018.1 |
| 20260502104539 | 73 | 222 | 5.0 | 13.0 | 0.00 | 0.01 | 0.01 | 60 | 1018.1 |
| 20260502103010 | 72 | 263 | 7.0 | 13.0 | 0.00 | 0.01 | 0.01 | 61 | 1018.3 |
| 20260502101603 | 72 | 186 | 7.0 | 13.0 | 0.00 | 0.01 | 0.01 | 61 | 1018.4 |
| 20260502091519 | 69 | 194 | 4.0 | 8.0 | 0.00 | 0.01 | 0.01 | 69 | 1018.9 |
| 20260502080103 | 60 | 140 | 2.0 | 5.0 | 0.00 | 0.01 | 0.01 | 72 | 1019.3 |
| 20260502070032 | 51 | 136 | 0.0 | 0.0 | 0.00 | 0.01 | 0.01 | 89 | 1019.5 |
| 20260502064514 | 50 | 136 | 0.0 | 2.0 | 0.00 | 0.01 | 0.01 | 89 | 1019.6 |
| 20260502063055 | 49 | 136 | 0.0 | 2.0 | 0.00 | 0.01 | 0.01 | 88 | 1019.7 |
| 20260502061532 | 48 | 137 | 1.0 | 3.0 | 0.00 | 0.01 | 0.01 | 88 | 1019.6 |
| 20260502060012 | 48 | 136 | 0.0 | 2.0 | 0.00 | 0.01 | 0.01 | 88 | 1019.7 |
| 20260502054545 | 48 | 136 | 2.0 | 4.0 | 0.00 | 0.01 | 0.01 | 87 | 1019.8 |
| 20260502053019 | 47 | 156 | 2.0 | 3.0 | 0.00 | 0.01 | 0.01 | 87 | 1019.8 |
| 20260502051552 | 47 | 156 | 0.0 | 0.0 | 0.00 | 0.01 | 0.01 | 86 | 1019.8 |
| 20260502050015 | 47 | 156 | 0.0 | 1.0 | 0.00 | 0.01 | 0.01 | 86 | 1019.7 |
| 20260502044540 | 46 | 156 | 0.0 | 2.0 | 0.00 | 0.01 | 0.01 | 85 | 1019.6 |
| 20260502043014 | 46 | 157 | 1.0 | 2.0 | 0.00 | 0.01 | 0.01 | 84 | 1019.6 |
| 20260502041541 | 47 | 157 | 1.0 | 8.0 | 0.01 | 0.01 | 0.01 | 84 | 1019.4 |